Waarnemingen

Advertentie
Mijn weer
Garmisch-Partenkirchen, Duitsland (10963): temperatuur & dauwpunt: 20.09.2018 09:00:00 - 26.09.2018 09:00:00 (CEST)Garmisch-Partenkirchen, Duitsland (10963): temperatuur 5cm & temperatuur -5cm: 20.09.2018 09:00:00 - 26.09.2018 09:00:00 (CEST)Garmisch-Partenkirchen, Duitsland (10963): temperatuur -20cm & temperatuur -100cm: 20.09.2018 09:00:00 - 26.09.2018 09:00:00 (CEST)Garmisch-Partenkirchen, Duitsland (10963): windsnelheid & windstoten: 20.09.2018 09:00:00 - 26.09.2018 09:00:00 (CEST)Garmisch-Partenkirchen, Duitsland (10963): windrichting: 20.09.2018 09:00:00 - 26.09.2018 09:00:00 (CEST)Garmisch-Partenkirchen, Duitsland (10963): luchtdruk: 20.09.2018 09:00:00 - 26.09.2018 09:00:00 (CEST)Garmisch-Partenkirchen, Duitsland (10963): zicht: 20.09.2018 09:00:00 - 26.09.2018 09:00:00 (CEST)Garmisch-Partenkirchen, Duitsland (10963): Zonneschijnduur: 20.09.2018 09:00:00 - 26.09.2018 09:00:00 (CEST)Garmisch-Partenkirchen, Duitsland (10963): neerslag: 20.09.2018 09:00:00 - 26.09.2018 09:00:00 (CEST)
Datum & Tijd tt [°C] td [°C] tt 5cm [°C] tt -5cm [°C] tt -20cm [°C] tt -100cm [°C] ff [km/u] ff [kn] fx [km/u] fx [kn] dd ppp [hPa] vv [km] sd [min] rr [mm]
26.09.2018 09:00:00 3,6 1,5 1,9 5,0 9,6 16,6 1 1 6 4 Z 1037,1 37 60 0,0
26.09.2018 08:00:00 0,7 0,3 -0,3 4,8 9,9 16,6 3 2 8 4 ZW 1037,5 51 17 0,0
26.09.2018 07:00:00 0,1 -0,5 -1,3 5,0 10,3 16,6 4 2 8 4 WZW 1037,7 52 0 0,0
26.09.2018 06:00:00 0,0 -0,5 -1,6 5,4 10,6 16,7 4 2 9 5 WZW 1038,1 30 0 0,0
26.09.2018 05:00:00 0,2 -0,3 -1,4 5,8 11,0 16,7 3 2 7 4 W 1037,7 53 0 0,0
26.09.2018 04:00:00 0,2 -0,3 -1,2 6,2 11,4 16,7 3 2 9 5 ZZW 1038,6 43 0 0,0
26.09.2018 03:00:00 0,6 0,2 -0,4 6,7 11,8 16,7 4 2 8 4 WZW 1039,2 38 0 0,0
26.09.2018 02:00:00 0,9 0,3 -0,1 7,3 12,2 16,7 2 1 7 4 ZW 1039,6 50 0 0,0
26.09.2018 01:00:00 1,6 1,2 0,9 7,8 12,6 16,7 5 3 8 5 ZZW 1040,1 42 0 0,0
26.09.2018 00:00:00 1,9 1,2 1,1 8,5 13,1 16,7 4 2 9 5 ZW 1040,6 40 0 0,0
25.09.2018 23:00:00 2,9 2,0 1,8 9,2 13,5 16,8 3 2 6 3 ZW 1040,1 53 0 0,0
25.09.2018 22:00:00 3,8 2,6 2,4 10,0 14,0 16,8 2 1 4 2 WZW 1039,6 71 0 0,0
25.09.2018 21:00:00 5,5 2,8 3,7 11,0 14,5 16,8 3 1 11 6 WNW 1038,4 66 0 0,0
25.09.2018 20:00:00 7,6 2,6 5,6 12,1 14,9 16,8 6 3 26 14 O 1037,3 68 0 0,0
25.09.2018 19:00:00 9,8 1,2 8,5 13,6 15,2 16,8 10 6 28 15 NO 1036,1 74 36 0,0
25.09.2018 18:00:00 11,1 2,0 10,3 15,6 15,3 16,8 11 6 28 15 NO 1035,1 75 60 0,0
25.09.2018 17:00:00 12,1 2,2 14,1 17,4 15,1 16,8 13 7 29 16 NNO 1034,7 75 60 0,0
25.09.2018 16:00:00 12,7 2,6 17,3 18,7 14,5 16,8 13 7 31 17 NO 1034,4 75 60 0,0
25.09.2018 15:00:00 12,2 2,5 16,2 18,4 13,8 16,9 16 9 29 16 NO 1035,0 60 60 0,0
25.09.2018 14:00:00 12,0 3,4 16,3 17,6 12,9 16,9 13 7 29 15 NO 1035,5 65 60 0,0
25.09.2018 13:00:00 10,8 3,4 14,8 15,9 12,1 16,9 15 8 29 16 NO 1036,6 72 60 0,0
25.09.2018 12:00:00 10,1 3,6 13,4 13,6 11,4 16,9 12 7 26 14 ONO 1037,2 75 60 0,0
25.09.2018 11:00:00 9,4 3,9 11,5 10,8 11,1 16,9 11 6 21 11 O 1037,6 75 60 0,0
25.09.2018 10:00:00 7,5 2,6 5,7 7,4 11,2 16,9 4 2 8 4 Z 1037,9 75 60 0,0
25.09.2018 09:00:00 3,8 2,2 2,4 6,7 11,4 16,9 5 3 11 6 Z 1038,7 73 60 0,0
25.09.2018 08:00:00 1,3 0,7 0,6 6,7 11,8 16,9 4 2 9 5 ZZW 1039,3 44 17 0,0
25.09.2018 07:00:00 1,2 0,9 0,5 7,1 12,1 16,9 5 3 9 5 ZW 1039,0 41 0 0,0
25.09.2018 06:00:00 1,4 1,0 0,9 7,6 12,5 16,9 4 2 9 5 ZW 1038,7 41 0 0,0
25.09.2018 05:00:00 2,1 1,5 1,3 8,2 12,9 17,0 6 3 9 5 ZZW 1038,8 48 0 0,0
25.09.2018 04:00:00 2,6 2,0 2,3 8,8 13,2 17,0 4 2 8 5 WZW 1038,5 37 0 0,0
25.09.2018 03:00:00 3,2 2,7 2,9 9,2 13,6 17,0 5 3 9 5 ZZW 1038,3 47 0 0,0
25.09.2018 02:00:00 3,3 2,6 2,8 9,6 13,9 17,0 3 2 8 4 WZW 1038,0 47 0 0,0
25.09.2018 01:00:00 3,7 2,9 3,3 10,3 14,3 17,0 3 2 8 5 ZZW 1037,7 56 0 0,0
25.09.2018 00:00:00 4,6 3,5 4,5 10,9 14,7 17,0 4 2 9 5 ZW 1037,5 67 0 0,0
24.09.2018 23:00:00 4,8 3,9 4,7 11,3 15,1 17,0 5 3 9 5 ZW 1037,1 55 0 0,0
24.09.2018 22:00:00 5,1 4,4 4,9 11,9 15,5 17,0 3 2 6 4 ZW 1036,4 56 0 0,0
24.09.2018 21:00:00 5,6 4,9 5,0 12,7 16,0 17,0 5 3 10 5 ZW 1035,9 55 0 0,0
24.09.2018 20:00:00 6,3 4,4 5,4 13,7 16,4 17,0 4 2 8 4 ZW 1034,9 69 0 0,0
24.09.2018 19:00:00 8,7 4,6 7,6 15,2 16,7 17,0 3 2 16 9 WNW 1033,2 75 5 0,0
24.09.2018 18:00:00 10,4 2,8 10,7 16,7 16,7 17,0 6 3 20 11 NNO 1032,2 60 16 0,0
24.09.2018 17:00:00 11,2 1,7 13,2 19,1 16,4 17,0 10 5 20 11 NO 1031,7 75 59 0,0
24.09.2018 16:00:00 11,9 1,9 17,0 19,0 15,8 17,0 6 3 11 6 ZZW 1031,7 75 50 0,0
24.09.2018 15:00:00 10,7 3,2 13,1 17,9 15,3 17,0 3 1 10 6 W 1032,4 75 41 0,0
24.09.2018 14:00:00 9,2 6,0 9,5 15,9 15,0 17,0 3 2 19 10 Z 1033,1 34 17 0,0
24.09.2018 13:00:00 8,8 5,7 10,2 14,6 14,8 17,0 6 4 16 8 NNO 1033,4 49 0 0,1
24.09.2018 12:00:00 7,4 4,8 8,2 13,8 14,7 17,0 8 4 17 9 NO 1033,5 24 0 0,5
24.09.2018 11:00:00 7,5 5,0 8,5 13,2 14,7 17,0 6 3 19 10 NO 1033,0 54 0 0,0
24.09.2018 10:00:00 6,6 5,1 7,0 12,3 14,9 17,0 6 3 16 9 NO 1032,5 17 0 0,1
24.09.2018 09:00:00 6,6 5,5 7,0 12,0 15,2 17,0 5 3 20 11 O 1031,3 15 0 0,8
24.09.2018 08:00:00 6,9 5,9 6,8 12,2 15,5 17,0 7 4 22 12 O 1029,5 11 0 1,7
24.09.2018 07:00:00 7,2 6,4 7,4 12,7 15,9 17,0 6 4 20 11 ONO 1027,8 14 0 0,4
24.09.2018 06:00:00 7,9 6,8 7,7 13,3 16,1 17,0 9 5 19 10 O 1026,4 65 0 0,0
24.09.2018 05:00:00 8,5 6,5 8,1 13,8 16,4 17,0 8 4 18 10 O 1025,1 75 0 0,1
24.09.2018 04:00:00 9,3 7,7 9,2 14,3 16,6 17,0 7 4 13 7 ZZO 1024,0 36 0 0,0
24.09.2018 03:00:00 9,9 9,1 9,9 14,4 16,9 17,1 3 2 9 5 Z 1023,4 71 0 1,0
24.09.2018 02:00:00 10,2 9,7 10,5 14,8 17,3 17,1 6 4 16 9 Z 1023,1 7 0 3,4
24.09.2018 01:00:00 11,1 10,0 10,9 15,5 17,8 17,1 5 3 28 15 W 1021,2 8 0 2,5
24.09.2018 00:00:00 12,4 10,1 11,5 16,4 18,2 17,1 14 7 29 15 ZW 1018,4 10 0 1,9
23.09.2018 23:00:00 14,0 11,5 13,1 17,4 18,4 17,1 9 5 37 20 ZW 1015,8 15 0 2,9
23.09.2018 22:00:00 18,1 15,2 16,2 18,0 18,7 17,1 16 9 44 24 W 1009,3 17 0 1,0
23.09.2018 21:00:00 16,5 15,1 15,3 18,4 19,0 17,1 3 2 11 6 N 1007,9 70 0 0,0
23.09.2018 20:00:00 17,2 15,3 15,8 19,2 19,2 17,1 3 2 12 6 NNW 1007,4 73 0 0,0
23.09.2018 19:00:00 18,9 15,4 17,1 20,6 19,2 17,1 5 3 11 6 Z 1006,8 75 23 0,0
23.09.2018 18:00:00 21,6 17,4 20,0 21,8 19,0 17,1 3 2 12 6 WZW 1006,9 75 49 0,0
23.09.2018 17:00:00 22,2 17,8 22,1 22,7 18,6 17,1 5 3 11 6 WZW 1008,3 75 31 0,0
23.09.2018 16:00:00 23,4 17,2 24,0 22,4 18,2 17,1 3 2 10 6 O 1009,1 75 21 0,0
23.09.2018 15:00:00 23,0 16,3 24,5 21,6 17,7 17,1 3 2 14 8 O 1010,4 75 12 0,0
23.09.2018 14:00:00 21,7 16,4 22,3 20,7 17,2 17,1 4 2 12 7 O 1011,8 75 0 0,0
23.09.2018 13:00:00 21,9 15,2 20,5 21,2 16,5 17,1 3 2 7 4 WZW 1012,7 75 48 0,0
23.09.2018 12:00:00 19,3 16,2 19,8 17,9 16,0 17,1 3 2 14 8 ONO 1014,5 61 18 0,0
23.09.2018 11:00:00 16,7 14,3 17,0 16,6 15,8 17,1 6 3 11 6 ZZW 1016,1 75 2 0,0
23.09.2018 10:00:00 14,7 13,2 15,0 15,4 15,7 17,1 2 1 7 4 N 1017,0 75 1 0,0
23.09.2018 09:00:00 13,1 12,4 13,3 14,7 15,7 17,1 4 2 8 5 ZW 1017,6 23 3 0,0
23.09.2018 08:00:00 11,7 11,2 11,8 14,2 15,8 17,1 2 1 6 4 NW 1018,2 38 0 0,0
23.09.2018 07:00:00 11,3 10,9 11,5 14,2 15,9 17,1 2 1 6 4 W 1018,6 16 0 0,4
23.09.2018 06:00:00 11,3 11,0 11,3 14,3 16,0 17,1 2 1 6 3 WZW 1019,5 4,8 0 0,5
23.09.2018 05:00:00 11,3 11,0 11,4 14,4 16,2 17,1 2 1 7 4 WZW 1020,2 3,8 0 0,9
23.09.2018 04:00:00 11,3 10,7 11,4 14,5 16,4 17,2 0 0 5 3 N 1021,1 7 0 0,8
23.09.2018 03:00:00 11,4 10,9 11,4 14,7 16,5 17,2 0 0 5 3 N 1021,4 8 0 0,1
23.09.2018 02:00:00 11,3 10,7 11,3 14,8 16,7 17,2 4 2 7 4 WZW 1021,6 46 0 0,2
23.09.2018 01:00:00 11,3 10,8 11,3 15,0 16,9 17,2 3 1 8 4 OZO 1021,9 14 0 0,1
23.09.2018 00:00:00 11,3 10,8 11,3 15,2 17,1 17,2 4 2 8 4 WZW 1021,4 23 0 0,3
22.09.2018 23:00:00 11,2 10,7 11,5 15,5 17,4 17,2 2 1 7 4 ZW 1022,4 19 0 0,0
22.09.2018 22:00:00 11,2 10,4 11,1 15,9 17,7 17,2 4 2 7 4 ZZW 1022,1 53 0 0,3
22.09.2018 21:00:00 11,7 10,4 11,7 16,4 17,9 17,2 2 1 6 4 W 1022,1 31 0 0,1
22.09.2018 20:00:00 12,1 9,9 12,4 17,1 18,2 17,2 3 1 8 5 ZW 1021,0 63 0 0,0
22.09.2018 19:00:00 13,4 8,6 13,4 17,9 18,4 17,2 4 2 13 7 ZZO 1020,8 73 11 0,0
22.09.2018 18:00:00 14,5 7,8 14,8 19,1 18,4 17,2 6 4 12 6 ONO 1020,5 74 18 0,0
22.09.2018 17:00:00 14,9 7,9 16,4 20,1 18,2 17,2 6 3 14 7 NO 1020,7 75 3 0,0
22.09.2018 16:00:00 14,8 7,2 17,3 21,3 17,8 17,2 7 4 19 10 NO 1021,0 72 57 0,0
22.09.2018 15:00:00 15,3 7,7 20,8 20,6 17,3 17,2 9 5 16 9 NO 1021,8 72 49 0,0
22.09.2018 14:00:00 14,5 7,3 15,7 19,1 16,9 17,2 3 2 12 7 NNO 1022,3 69 2 0,0
22.09.2018 13:00:00 13,4 7,0 14,7 18,4 16,5 17,2 4 2 9 5 ZW 1023,3 75 20 0,0
22.09.2018 12:00:00 12,6 7,0 13,0 16,6 16,3 17,2 3 2 11 6 O 1024,2 63 0 0,0
22.09.2018 11:00:00 11,4 8,2 12,1 15,6 16,2 17,2 4 2 7 4 NNO 1024,9 65 0 0,0
22.09.2018 10:00:00 10,5 8,4 10,6 14,6 16,2 17,2 3 2 9 5 Z 1025,1 73 0 0,0
22.09.2018 09:00:00 9,6 8,3 9,9 14,1 16,4 17,1 4 2 6 3 ZW 1025,4 65 0 0,0
22.09.2018 08:00:00 9,0 8,2 9,1 13,9 16,6 17,1 3 2 6 4 WNW 1025,7 65 0 0,0
22.09.2018 07:00:00 8,9 8,0 9,0 14,1 16,9 17,1 0 0 6 3 N 1025,4 69 0 0,2
22.09.2018 06:00:00 8,8 8,0 8,9 14,3 17,2 17,1 2 1 5 3 W 1025,1 4,5 0 0,7
22.09.2018 05:00:00 9,1 8,4 9,2 14,7 17,5 17,1 3 1 10 5 W 1025,3 4,5 0 0,4
22.09.2018 04:00:00 9,5 8,9 9,7 15,0 17,8 17,2 5 3 9 5 WZW 1024,4 8 0 0,2
22.09.2018 03:00:00 9,7 7,6 9,3 15,3 18,2 17,2 5 3 16 9 O 1023,8 9 0 0,2
22.09.2018 02:00:00 10,0 8,8 10,1 15,6 18,6 17,2 4 2 22 12 ZO 1023,1 9 0 1,0
22.09.2018 01:00:00 10,6 9,3 10,4 16,1 19,2 17,2 12 7 37 20 NO 1022,5 4,5 0 2,6
22.09.2018 00:00:00 12,1 11,1 11,9 17,4 19,7 17,2 15 8 40 22 NO 1019,8 8 0 4,2
21.09.2018 23:00:00 14,8 13,8 14,6 19,1 20,1 17,2 16 8 37 20 NO 1017,5 12 0 3,3
21.09.2018 22:00:00 17,2 15,2 16,2 20,0 20,4 17,2 6 3 15 8 ZZW 1014,7 3,4 0 0,3
21.09.2018 21:00:00 19,1 14,4 17,9 20,6 20,6 17,2 3 2 11 6 WZW 1012,8 60 0 0,0
21.09.2018 20:00:00 19,2 15,1 18,1 21,4 20,9 17,2 6 3 11 6 WZW 1012,0 53 0 0,0
21.09.2018 19:00:00 20,7 14,5 19,6 22,7 21,0 17,2 5 3 12 7 OZO 1010,4 67 0 0,0
21.09.2018 18:00:00 22,5 14,6 21,8 24,1 20,9 17,2 5 3 11 6 WZW 1009,3 57 6 0,0
21.09.2018 17:00:00 24,5 12,4 24,2 25,2 20,6 17,2 4 2 18 10 OZO 1009,3 75 0 0,0
21.09.2018 16:00:00 26,4 9,4 27,5 26,9 19,9 17,2 9 5 18 10 NO 1009,3 75 50 0,0
21.09.2018 15:00:00 26,7 9,0 29,2 26,9 19,0 17,2 5 3 12 7 NO 1009,6 69 60 0,0
21.09.2018 14:00:00 27,2 11,0 30,7 25,2 18,0 17,2 5 3 11 6 OZO 1010,2 67 59 0,0
21.09.2018 13:00:00 25,9 10,5 30,0 23,4 16,9 17,2 4 2 9 5 ONO 1011,2 54 60 0,0
21.09.2018 12:00:00 24,2 10,8 25,9 20,6 16,1 17,2 4 2 9 5 Z 1012,2 50 60 0,0
21.09.2018 11:00:00 22,4 12,0 23,5 17,3 15,7 17,2 5 3 7 4 ZZO 1013,2 39 60 0,0
21.09.2018 10:00:00 19,6 13,2 16,0 13,7 15,7 17,2 3 1 6 3 ZZO 1014,3 64 60 0,0
21.09.2018 09:00:00 13,7 12,3 11,8 12,9 15,9 17,2 4 2 6 4 Z 1016,2 43 60 0,0
21.09.2018 08:00:00 9,7 9,5 9,1 12,6 16,2 17,2 2 1 5 3 W 1017,6 26 26 0,0
21.09.2018 07:00:00 9,3 9,0 8,5 12,9 16,5 17,2 2 1 6 4 WNW 1017,6 24 0 0,0
21.09.2018 06:00:00 9,5 9,2 8,4 13,3 16,8 17,2 3 2 5 3 ZW 1017,8 18 0 0,0
21.09.2018 05:00:00 9,8 9,5 8,8 13,7 17,2 17,2 2 1 5 3 ZZO 1017,7 16 0 0,0
21.09.2018 04:00:00 10,3 10,0 9,2 14,2 17,6 17,2 3 2 6 3 WZW 1018,0 22 0 0,0
21.09.2018 03:00:00 10,6 10,3 9,6 14,7 18,0 17,2 3 2 5 3 WZW 1018,2 18 0 0,0
21.09.2018 02:00:00 11,1 10,7 10,0 15,3 18,4 17,2 2 1 4 2 WZW 1018,3 33 0 0,0
21.09.2018 01:00:00 12,0 11,6 10,3 16,0 18,8 17,2 2 1 5 3 W 1018,4 29 0 0,0
21.09.2018 00:00:00 12,2 11,8 11,5 16,7 19,3 17,2 3 2 8 5 ZZW 1018,6 23 0 0,0
20.09.2018 23:00:00 13,2 12,6 12,2 17,5 19,7 17,2 3 2 6 4 WZW 1019,0 33 0 0,0
20.09.2018 22:00:00 13,8 12,9 12,7 18,4 20,2 17,2 2 1 9 5 ZZW 1019,0 42 0 0,0
20.09.2018 21:00:00 15,0 13,7 13,8 19,6 20,6 17,2 4 2 7 4 ZW 1018,5 41 0 0,0
20.09.2018 20:00:00 17,3 14,4 15,3 21,0 21,0 17,2 4 2 8 5 WZW 1017,6 52 0 0,0
20.09.2018 19:00:00 21,2 14,0 18,3 22,7 21,1 17,2 3 2 19 10 ZO 1016,2 60 37 0,0
20.09.2018 18:00:00 23,9 12,9 23,1 24,5 21,0 17,2 9 5 24 13 NO 1015,7 64 60 0,0
20.09.2018 17:00:00 25,0 13,1 28,0 26,2 20,6 17,2 11 6 27 15 NO 1015,5 75 60 0,0
20.09.2018 16:00:00 25,4 13,3 28,5 26,8 19,8 17,2 11 6 24 13 NO 1015,7 73 60 0,0
20.09.2018 15:00:00 25,7 12,0 30,0 26,5 18,9 17,2 9 5 18 10 NO 1016,2 66 60 0,0
20.09.2018 14:00:00 26,2 7,7 29,9 25,3 17,8 17,2 4 2 9 5 Z 1016,9 46 60 0,0
20.09.2018 13:00:00 24,9 11,2 27,6 23,1 16,8 17,2 4 2 9 5 ZZO 1017,9 67 60 0,0
20.09.2018 12:00:00 22,5 10,3 26,0 20,3 16,0 17,2 3 1 9 5 ZZO 1019,5 57 60 0,0
20.09.2018 11:00:00 21,4 10,6 20,2 17,1 15,6 17,2 4 2 8 4 ZZO 1020,6 70 60 0,0
20.09.2018 10:00:00 17,9 12,3 15,5 13,6 15,6 17,2 3 2 7 4 ZZO 1021,8 58 60 0,0
20.09.2018 09:00:00 13,6 12,7 11,7 12,8 15,8 17,2 3 2 7 4 ZZO 1023,2 36 60 0,0

tt = temperatuur
td = dauwpunt
tt 5cm = temperatuur 5cm
tt -5cm = temperatuur -5cm
tt -20cm = temperatuur -20cm
tt -100cm = temperatuur -100cm
ff = windsnelheid
fx = windstoten
dd = windrichting
ppp = luchtdruk
vv = zicht
sd = Zonneschijnduur
rr = neerslag

Weerstations in de omgeving